Simultaneous Nadir Overpasses (SNOs) Predictions

Prediction of SNOs between GOES-17 and AQUA Satellite Orbit:

Table of predicted SNOs for the next 14.0 days since TLE Epoch: 2/19/2022
Index Date Time (GOES-17) GOES-17 Lat,Lon AQUA Lat,Lon Distance(km) Time Diff (sec)
1 02/20/2022 10:36:56 -0.04,-137.18 -0.39,-135.44 196.83 80
2 02/20/2022 22:58:19 0.04,-137.16 -0.71,-140.62 393.91 80
3 02/22/2022 22:46:04 0.04,-137.12 -0.06,-137.65 59.56 80
4 02/24/2022 22:36:28 0.04,-137.07 0.54,-134.66 273.89 80
5 02/25/2022 10:57:43 -0.03,-137.06 0.53,-139.82 313.00 80
6 02/27/2022 10:42:47 -0.02,-137.00 -0.08,-136.84 20.07 80
7 03/01/2022 10:30:30 -0.00,-136.94 -0.65,-133.84 352.44 80
8 03/01/2022 22:51:53 0.00,-136.92 -0.44,-139.03 239.02 80
9 03/03/2022 22:42:17 0.00,-136.86 0.20,-136.05 93.33 80
10 03/04/2022 11:03:31 -0.00,-136.85 0.93,-141.19 493.63 80
